[[{"header":{"parameterUnit":"m.s-1","parameterCategory":1,"la1":30.2991,"la2":30.254,"lo1":-89.0895,"lo2":-89.0444,"dy":0.0017,"dx":0.0017,"nx":28,"ny":28,"refTime":"2025-03-08T09:00:00:Z","depth":0,"parameterNumber":2,"parameterNumberName":"U-component_of_WINDS"},"data":[0,0,0,0,0,0,0,0,0,0,0,0,0,0,0,0,0,0,0,0,0,0,0,0,0,0,0,0,0,0,0,0,0,0,0,0,0,0,0,0,0,0,0,0,0,0,0,0,0,0,0,0,0,0,0,0,0,0,6.8318,6.8319,0,6.8445,6.8447,6.8448,6.8372,6.8368,6.8365,6.8361,6.8493,6.85,6.8507,0,0,0,0,0,0,0,0,0,0,0,0,0,6.8011,6.8017,6.8318,6.8319,6.8321,6.8445,6.8447,6.8449,6.8373,6.8368,6.8364,6.836,6.8491,6.8499,6.8508,0,0,0,0,0,0,0,0,0,0,0,0,0,6.8142,6.8019,6.8317,6.8298,6.8297,6.8445,6.8447,6.8449,6.8374,6.8368,6.8363,6.8358,6.8488,6.8499,6.8509,6.8683,0,0,6.8541,6.8545,0,0,0,0,0,0,0,0,6.8135,6.8154,6.8299,6.83,6.8299,6.8387,6.8387,6.8527,6.8375,6.8345,6.8361,6.8355,6.8463,6.8475,6.8511,6.8689,6.8695,6.8541,6.8548,6.8552,6.8555,0,0,0,0,0,0,0,6.8126,6.8148,6.8368,6.8301,6.8302,6.8284,6.8296,6.8413,6.8433,6.8347,6.8342,6.8358,6.8462,6.8501,6.8513,6.8696,6.8541,6.855,6.8557,6.8561,6.9027,6.9032,0,0,0,0,0,0,6.8118,6.8141,6.8364,6.8372,6.8202,6.8294,6.8308,6.8364,6.8431,6.8436,6.8362,6.8354,6.8486,6.8501,6.8518,6.8727,6.8552,6.8562,6.8568,6.902,6.9028,6.9034,0,0,0,0,0,0,6.8112,6.8139,6.8359,6.8255,6.8282,6.8305,6.8369,6.837,6.8409,6.8443,6.8446,6.8399,6.8482,6.8503,6.8643,6.8731,6.8567,6.8576,6.9013,6.9023,6.9031,6.9147,0,0,0,0,0,0,6.8103,6.8137,6.8202,6.8257,6.8288,6.8481,6.8375,6.8376,6.8427,6.8417,6.8478,6.8483,6.8479,6.8628,6.8653,6.8742,6.8584,6.9005,6.9017,6.9028,6.9136,6.9159,6.918,0,0,0,0,0,6.8093,6.823,6.8206,6.8233,6.837,6.8486,6.8504,6.8497,6.8434,6.8501,6.8523,6.8481,6.8717,6.8643,6.8671,6.8764,6.9,6.9014,6.9027,6.9126,6.9155,6.9179,0,0,0,0,0,0,6.8185,6.8236,6.8211,6.8369,6.8424,6.8473,6.8557,6.8527,6.8601,6.8588,6.8577,6.8591,6.8737,6.8764,6.8681,6.8937,6.8849,6.8869,6.8914,6.8942,6.8963,6.8954,6.8593,0,0,0,0,0,6.8224,6.8313,6.8354,6.849,6.8519,6.8534,6.8584,6.8574,6.863,6.8653,6.8685,6.8742,6.8829,6.8887,6.8969,6.9139,6.9153,6.9218,6.924,6.9257,6.9275,6.9369,6.9399,6.908,6.908,6.9079,0,0,6.8305,6.8344,6.8401,6.851,6.8551,6.8645,6.8554,6.8657,6.8727,6.8669,6.8803,6.8829,6.8892,6.9049,6.9119,6.9076,6.9366,6.9275,6.9289,6.9297,6.9387,6.9417,6.9444,6.9089,6.9088,6.9086,0,0,6.8501,6.8539,6.8658,6.8701,6.8765,6.8774,6.8803,6.8857,6.8872,6.9007,6.8966,6.905,6.92,6.9247,6.929,6.9507,6.9472,6.9534,6.9649,6.9741,6.9766,6.9789,6.9868,6.9896,6.9552,6.9552,6.9552,0,6.8594,6.8733,6.8722,6.883,6.888,6.8831,6.8953,6.8995,6.9083,6.9119,6.9069,6.9258,6.9296,6.9464,6.9518,6.9554,6.9588,6.9527,6.9763,6.9786,6.9806,6.9882,6.9911,6.9559,6.9558,6.9558,6.9557,0,6.8845,6.8943,6.9032,6.9118,6.9177,6.9291,6.9299,6.9361,6.9346,6.9361,6.95,6.9545,6.9636,6.9675,6.9661,6.9842,6.9814,6.9764,6.9675,6.9844,6.9915,6.9943,6.957,6.9567,6.9565,6.9563,0,0,6.9102,6.9182,6.9215,6.9254,6.9322,6.9398,6.9511,6.96,6.9654,6.9716,6.9811,6.994,6.9896,6.9945,6.9937,7.0018,7.0189,6.9958,6.996,7.0001,7.0393,7.043,7.0464,7.0166,7.0171,7.0175,7.0388,0,6.9304,6.9499,6.9494,6.9677,6.9768,6.9725,6.9823,6.9876,6.9894,6.9975,6.9994,7.0086,7.0019,7.0049,7.0127,7.0151,7.0268,7.0136,7.0255,7.026,7.0242,7.05,7.054,7.0738,7.0415,7.042,7.0423,0,6.9565,6.9636,6.9828,6.9885,6.9923,7.0011,7.0093,7.0171,7.0231,7.0238,7.0295,7.0274,7.039,7.0298,7.0458,7.0369,7.0417,7.0437,7.0444,7.0456,7.0352,7.052,7.0801,7.0832,7.0466,7.0463,7.046,0,6.9735,6.9879,7.0013,7.0048,7.0117,7.018,7.0212,7.0266,7.0321,7.0393,7.0429,7.0514,7.0561,7.0628,7.0632,7.0564,7.0794,7.0702,7.0805,7.0805,7.0855,7.0852,7.115,7.0886,7.0885,7.0885,7.0884,0,6.9961,7.008,7.0091,7.0174,7.0307,7.03,7.0433,7.0458,7.0508,7.0595,7.0563,7.0647,7.0645,7.0731,7.0734,7.0868,7.0889,7.0899,7.0899,7.0903,7.0902,7.0935,7.0921,7.0892,7.0891,7.0889,7.0888,0,7.0173,7.0185,7.0329,7.0382,7.0399,7.0495,7.0541,7.062,7.0635,7.0747,7.0773,7.0797,7.0896,7.0906,7.1021,7.1024,7.1185,7.117,7.1165,7.1163,7.1266,7.1257,7.1596,7.1641,7.1346,7.1349,7.1351,0,7.0317,7.0408,7.0472,7.0529,7.0564,7.0655,7.0711,7.0709,7.0768,7.0845,7.0916,7.1011,7.1088,7.1249,7.1277,7.1365,7.1352,7.1465,7.1365,7.1367,7.1356,7.1351,7.1361,7.1485,7.1488,7.1491,7.1493,0,7.0572,7.0574,7.0655,7.074,7.0808,7.0874,7.0937,7.0985,7.099,7.106,7.116,7.122,7.1338,7.1434,7.1522,7.1555,7.1526,7.1524,7.1553,7.1558,7.1552,7.1558,7.1219,7.1516,7.1514,7.1512,7.1511,7.151,7.0756,7.0835,7.0893,7.0986,7.1033,7.1092,7.117,7.1195,7.1279,7.1375,7.1368,7.148,7.154,7.1654,7.1695,7.1783,7.1746,7.1787,7.1797,7.1808,7.1819,7.1538,7.1799,7.1798,7.1798,7.1797,7.1797,0,7.101,7.1045,7.1131,7.1219,7.1293,7.1258,7.1326,7.139,7.1489,7.1547,7.1623,7.174,7.1834,7.187,7.1962,7.2026,7.2016,7.2051,7.2046,7.2055,7.1847,7.1813,7.2058,7.2058,7.2058,7.2058,7.2058,7.2058,7.1151,7.1285,7.1294,7.1451,7.1486,7.1595,7.1637,7.1692,7.1738,7.1871,7.1948,7.1971,7.2021,7.2117,7.2202,7.221,7.2246,7.2288,7.2291,7.2096,7.2069,7.2044,7.2013,7.2296,7.2296,7.2492,7.2494,7.2495]},{"header":{"parameterUnit":"m.s-1","parameterCategory":1,"la1":30.2991,"la2":30.254,"lo1":-89.0895,"lo2":-89.0444,"dy":0.0017,"dx":0.0017,"nx":28,"ny":28,"refTime":"2025-03-08T09:00:00:Z","depth":0,"parameterNumber":3,"parameterNumberName":"V-component_of_WINDS"},"data":[0,0,0,0,0,0,0,0,0,0,0,0,0,0,0,0,0,0,0,0,0,0,0,0,0,0,0,0,0,0,0,0,0,0,0,0,0,0,0,0,0,0,0,0,0,0,0,0,0,0,0,0,0,0,0,0,0,0,-5.1335,-5.1336,0,-5.1485,-5.1487,-5.1488,-5.1483,-5.1481,-5.1479,-5.1477,-5.1631,-5.1637,-5.1643,0,0,0,0,0,0,0,0,0,0,0,0,0,-5.1044,-5.1049,-5.1335,-5.1336,-5.1338,-5.1485,-5.1487,-5.1489,-5.1483,-5.1481,-5.1478,-5.1476,-5.1629,-5.1636,-5.1643,0,0,0,0,0,0,0,0,0,0,0,0,0,-5.118,-5.1051,-5.1334,-5.1353,-5.1356,-5.1484,-5.1487,-5.1489,-5.1484,-5.1481,-5.1478,-5.1475,-5.1627,-5.1635,-5.1644,-5.1763,0,0,-5.1672,-5.1676,0,0,0,0,0,0,0,0,-5.1172,-5.119,-5.1349,-5.1352,-5.1356,-5.1462,-5.1441,-5.1581,-5.1485,-5.1436,-5.1477,-5.1473,-5.1577,-5.159,-5.1625,-5.177,-5.1777,-5.1673,-5.1678,-5.1682,-5.1685,0,0,0,0,0,0,0,-5.1163,-5.1184,-5.1394,-5.1351,-5.1355,-5.1355,-5.137,-5.1467,-5.1522,-5.144,-5.144,-5.1457,-5.1579,-5.1617,-5.1629,-5.1779,-5.1673,-5.1681,-5.1686,-5.169,-5.203,-5.2034,0,0,0,0,0,0,-5.1149,-5.1176,-5.1389,-5.1399,-5.1254,-5.1362,-5.138,-5.1431,-5.1521,-5.1532,-5.146,-5.1457,-5.1603,-5.1618,-5.1634,-5.178,-5.1682,-5.1691,-5.1696,-5.2027,-5.2031,-5.2035,0,0,0,0,0,0,-5.1143,-5.1168,-5.1383,-5.1288,-5.1315,-5.1371,-5.1428,-5.1436,-5.1474,-5.1537,-5.1546,-5.1488,-5.1601,-5.1622,-5.1731,-5.1785,-5.1695,-5.1703,-5.2023,-5.2028,-5.2033,-5.2071,0,0,0,0,0,0,-5.1134,-5.1166,-5.1211,-5.1289,-5.132,-5.1478,-5.1431,-5.1441,-5.1489,-5.1486,-5.1566,-5.1576,-5.16,-5.1718,-5.174,-5.1796,-5.171,-5.2018,-5.2025,-5.2032,-5.2066,-5.2077,-5.2087,0,0,0,0,0,-5.1124,-5.1216,-5.1214,-5.1239,-5.1378,-5.1481,-5.1499,-5.1524,-5.1494,-5.154,-5.1581,-5.1574,-5.1776,-5.1729,-5.1755,-5.1813,-5.2015,-5.2023,-5.2031,-5.2061,-5.2075,-5.2087,0,0,0,0,0,0,-5.1143,-5.1226,-5.1225,-5.1344,-5.1406,-5.148,-5.1539,-5.1539,-5.161,-5.1604,-5.1633,-5.1651,-5.1761,-5.1798,-5.1745,-5.1934,-5.1891,-5.1905,-5.1905,-5.1919,-5.193,-5.1919,-5.1718,0,0,0,0,0,-5.1162,-5.1238,-5.1306,-5.1405,-5.1436,-5.1482,-5.1528,-5.1543,-5.1607,-5.1633,-5.1682,-5.1745,-5.1823,-5.1873,-5.1948,-5.2071,-5.2089,-5.2124,-5.2135,-5.2144,-5.2155,-5.2224,-5.224,-5.2062,-5.2062,-5.2062,0,0,-5.12,-5.1255,-5.1301,-5.1411,-5.146,-5.1539,-5.1504,-5.1589,-5.1648,-5.1646,-5.1753,-5.1791,-5.1863,-5.198,-5.2034,-5.2015,-5.2209,-5.2154,-5.2161,-5.2167,-5.2234,-5.225,-5.2265,-5.2067,-5.2066,-5.2065,0,0,-5.131,-5.1359,-5.1447,-5.1497,-5.1572,-5.1602,-5.1623,-5.1698,-5.1723,-5.1831,-5.1832,-5.1902,-5.2036,-5.2087,-5.2131,-5.2262,-5.2258,-5.2286,-5.2343,-5.2409,-5.2423,-5.2436,-5.2483,-5.2499,-5.2297,-5.2297,-5.2297,0,-5.1348,-5.1466,-5.1492,-5.1577,-5.1626,-5.1628,-5.1718,-5.1765,-5.1861,-5.1895,-5.1872,-5.204,-5.2089,-5.2218,-5.225,-5.2285,-5.2311,-5.2276,-5.2419,-5.2432,-5.2444,-5.2489,-5.2507,-5.23,-5.23,-5.2299,-5.2299,0,-5.1509,-5.1592,-5.1654,-5.1746,-5.1802,-5.1889,-5.1928,-5.1982,-5.1992,-5.2024,-5.2135,-5.2194,-5.2281,-5.2313,-5.2323,-5.2444,-5.243,-5.2413,-5.2371,-5.2464,-5.2506,-5.2524,-5.2304,-5.2303,-5.2302,-5.2301,0,0,-5.1635,-5.1741,-5.1763,-5.1806,-5.1889,-5.1954,-5.2041,-5.2127,-5.2172,-5.2238,-5.2313,-5.2426,-5.2411,-5.2461,-5.2477,-5.2536,-5.2636,-5.2512,-5.2514,-5.2532,-5.2773,-5.2785,-5.2805,-5.2634,-5.2638,-5.264,-5.2767,0,-5.1753,-5.1908,-5.1934,-5.207,-5.2147,-5.2151,-5.2228,-5.2287,-5.2321,-5.2391,-5.2428,-5.2508,-5.2482,-5.2512,-5.257,-5.2611,-5.2685,-5.2603,-5.2704,-5.2707,-5.2685,-5.2827,-5.284,-5.2957,-5.2784,-5.2787,-5.2789,0,-5.1912,-5.1982,-5.2126,-5.22,-5.2233,-5.2301,-5.2382,-5.2449,-5.2517,-5.2538,-5.2594,-5.2604,-5.2695,-5.265,-5.2777,-5.272,-5.2764,-5.279,-5.2795,-5.2805,-5.2753,-5.2841,-5.2994,-5.3012,-5.2815,-5.2813,-5.2811,0,-5.1989,-5.212,-5.2223,-5.2259,-5.2348,-5.2396,-5.2435,-5.25,-5.255,-5.2621,-5.2654,-5.2735,-5.2779,-5.2841,-5.2873,-5.2837,-5.2998,-5.2955,-5.3017,-5.3017,-5.305,-5.3048,-5.3213,-5.3079,-5.3079,-5.3078,-5.3078,0,-5.2118,-5.2206,-5.2259,-5.2322,-5.2421,-5.245,-5.2547,-5.2586,-5.2644,-5.2715,-5.2724,-5.279,-5.2829,-5.2901,-5.2927,-5.3028,-5.3048,-5.3067,-5.3073,-5.3066,-5.3064,-5.3094,-5.3087,-5.3083,-5.3082,-5.3081,-5.308,0,-5.222,-5.2259,-5.2372,-5.2447,-5.2468,-5.2537,-5.2602,-5.2664,-5.2697,-5.2787,-5.281,-5.2863,-5.2949,-5.2987,-5.3093,-5.311,-5.3226,-5.3226,-5.3202,-5.3204,-5.3265,-5.3259,-5.3455,-5.3483,-5.333,-5.3332,-5.3333,0,-5.23,-5.2367,-5.245,-5.2498,-5.2539,-5.2617,-5.2668,-5.27,-5.2753,-5.2837,-5.2889,-5.2975,-5.3045,-5.3183,-5.323,-5.3312,-5.3314,-5.3377,-5.3326,-5.3317,-5.3314,-5.331,-5.3317,-5.3386,-5.3387,-5.3389,-5.339,0,-5.2437,-5.2453,-5.2527,-5.2607,-5.2668,-5.2733,-5.2797,-5.2836,-5.2879,-5.2938,-5.3026,-5.3081,-5.3189,-5.3275,-5.3359,-5.34,-5.3402,-5.3406,-5.3424,-5.3418,-5.3402,-5.3411,-5.3228,-5.3401,-5.34,-5.3399,-5.3398,-5.3398,-5.2531,-5.2591,-5.2659,-5.2741,-5.2792,-5.2852,-5.2914,-5.2955,-5.3029,-5.312,-5.3135,-5.3228,-5.3296,-5.341,-5.3454,-5.3528,-5.3512,-5.354,-5.3546,-5.3553,-5.3556,-5.339,-5.3543,-5.3543,-5.3543,-5.3543,-5.3542,0,-5.2669,-5.2713,-5.2787,-5.2876,-5.2941,-5.2938,-5.3008,-5.3063,-5.3145,-5.3208,-5.3277,-5.3379,-5.3462,-5.3517,-5.3601,-5.365,-5.3653,-5.3671,-5.3668,-5.3677,-5.3565,-5.354,-5.3667,-5.3667,-5.3667,-5.3667,-5.3667,-5.3667,-5.2748,-5.285,-5.2875,-5.3003,-5.3046,-5.3138,-5.3179,-5.3234,-5.3284,-5.3397,-5.3466,-5.3502,-5.3562,-5.3651,-5.3727,-5.3741,-5.3772,-5.379,-5.3803,-5.3698,-5.3685,-5.3672,-5.3649,-5.3797,-5.3797,-5.3909,-5.391,-5.3911]}]]